World > North America > United States > Utah > Caineville  

Caineville, UT Hourly Weather Updates

Feedback E-mail the Weather

Quick Clicks

Caineville, UT Weather Maps

°F °C°F °C
Caineville Weather Map
UTC Time: 4/24/2024, 13:44
Your Time:

Caineville, UT Regional Weather

Expires:202404241400;;293207
ASUS45 KSLC 241310
RWRUT 

UTAH REGIONAL WEATHER ROUNDUP
NATIONAL WEATHER SERVICE SALT LAKE CITY UT
700 AM MDT WED APR 24 2024


UTZ121>131-241400-

SOUTHERN UTAH
  
CITY           SKY/WX    TMP DP  RH WIND       PRES   REMARKS
BRYCE CANYON   CLEAR     26  23  88 W6        30.13F WCI  19          
CEDAR CITY     CLEAR     48  27  44 S6        30.02R                  
MILFORD        CLEAR     41  26  55 CALM      29.97F                  
ST GEORGE      CLEAR     59  29  31 SE8       29.92R                  
HANKSVILLE     CLEAR     59  23  25 S3        30.00R                  
KANAB          SUNNY     39  30  70 E6        30.07R WCI  35          
BLANDING       CLEAR     47  22  36 N13       30.10R                  

$$

REGIONAL REPORTS     COLORADO/ARIZONA
  
CITY           SKY/WX    TMP DP  RH WIND       PRES   REMARKS
CRAIG, CO      MOCLDY    47  38  71 N3        30.04S                  
GRAND JUNCTION CLEAR     55  28  35 E10       29.97R                  
RIFLE, CO      CLEAR     42  28  57 CALM      30.03R                  
MONTROSE, CO   CLEAR     57  21  24 S5        30.06R                  
CORTEZ, CO     CLEAR     40  25  55 E6        30.13R                  
COLORADO CITY  CLEAR     41  32  70 SE6       30.05R                  
PAGE, AZ       CLEAR     59  23  25 S3        29.99S                  
GRAND CANYON   CLEAR     28  21  75 CALM      30.13R                  
KINGMAN, AZ    CLEAR     56  32  40 E6        29.95R                  
FLAGSTAFF, AZ  CLEAR     31  22  69 CALM      30.15R                  

$$

REGIONAL REPORTS    NEVADA/IDAHO/WYOMING
  
CITY           SKY/WX    TMP DP  RH WIND       PRES   REMARKS
LAS VEGAS, NV  CLEAR     66  34  30 S12G22    29.84S                  
ELY, NV        CLEAR     33  23  66 S9        30.01S WCI  25          
ELKO, NV       MOCLDY    47  41  80 CALM      29.97S                  
POCATELLO, ID  MOCLDY    39  32  76 W5        29.96S                  
BURLEY, ID     PTCLDY    43  36  76 CALM      29.92S                  
EVANSTON, WY   PTCLDY    41  30  65 S9        30.05S                  
ROCK SPRINGS,  PTCLDY    40  31  70 W3        30.08R                  
KEMMERER, WY   MOCLDY    43  32  65 NW3       30.07R                  

$$
  

SKY/WX - Weather  TMP - Temperature  DP - Dew Point  RH - Humidity
WIND - Wind Direction/Speed PRES - Barometric Pressure VSB - Visibility
WCI - Wind Chill Index E13G22 Wind - East Wind 13 mph/Gusts of 22 mph

Trending Headlines

Trending Entertainment Headlines

Caineville Radar Loop

Use the map search tool if you want to place a location marker on the radar map...

Caineville Quick Facts

National Two Day Weather Forecast


E-mail the Caineville Weather Forecast

Voice your opinion or tell us about page issues...